Weather History for KLHX - July, 2013

Change the Weather History Date:

Thursday, July 18, 2013

  Actual Average Record
Temperature  
Mean Temperature 81 °F 79 °F  
Max Temperature 98 °F 94 °F 106 °F (1976)
Min Temperature 64 °F 64 °F 55 °F (1987)
Degree Days  
Heating Degree Days 0 0  
Month to date heating degree days 0 0  
Since 1 June heating degree days 11 16  
Since 1 July heating degree days 0 0  
Cooling Degree Days 16 14  
Month to date cooling degree days 254 240  
Year to date cooling degree days 780 557  
Since 1 June cooling degree days 642 484  
Growing Degree Days 30 (Base 50)    
Moisture  
Dew Point 51 °F    
Average Humidity 43    
Maximum Humidity 68    
Minimum Humidity 17    
Precipitation  
Precipitation 0.00 in 0.06 in 0.81 in (1979)
Month to date precipitation 0.42 1.04  
Year to date precipitation 3.09 6.69  
Sea Level Pressure  
Sea Level Pressure 29.87 in    
Wind  
Wind Speed 10 mph (SSE)    
Max Wind Speed 31 mph    
Max Gust Speed 37 mph    
Visibility 10 miles    
Events      
T = Trace of Precipitation, MM = Missing Value Source: NWS Daily Summary

Daily Weather History Graph

Daily Weather History Graph

Search for Another Location

Airport or City:

Trip Planner

Search our weather history database for the weather conditions in past years. The results will help you decide how hot, cold, wet, or windy it might be!

Date:

Astronomy

Jul. 18, 2013 Rise Set
Actual Time 5:45 AM MDT 8:14 PM MDT
Civil Twilight 5:15 AM MDT 8:44 PM MDT
Nautical Twilight 4:37 AM MDT 9:22 PM MDT
Astronomical Twilight 3:56 AM MDT 10:03 PM MDT
Moon 4:14 PM MDT (7/18) 1:37 AM MDT (7/18)
Length of Visible Light 15h 29m
Length of Day
14h 28m
Waxing Gibbous, 78% of the Moon is Illuminated
Jul 18
Waxing Gibbous
Jul 22
Full
Jul 29
Last Quarter
Aug 6
New
Aug 14
First Quarter

Hourly Weather History & Observations

Time (MDT) Temp. Heat Index Dew Point Humidity Pressure Visibility Wind Dir Wind Speed Gust Speed Precip Events Conditions
12:53 AM 71.1 °F - 55.9 °F 59% 30.01 in 10.0 mi South 12.7 mph - N/A   Clear
1:53 AM 69.1 °F - 55.0 °F 61% 29.99 in 10.0 mi SSE 9.2 mph - N/A   Clear
2:53 AM 68.0 °F - 55.0 °F 63% 29.98 in 10.0 mi SSE 6.9 mph - N/A   Clear
3:53 AM 66.0 °F - 55.0 °F 68% 29.96 in 10.0 mi SSE 6.9 mph - N/A   Clear
4:53 AM 66.0 °F - 55.0 °F 68% 29.95 in 10.0 mi SSE 8.1 mph - N/A   Clear
5:53 AM 64.0 °F - 54.0 °F 70% 29.96 in 10.0 mi SSE 3.5 mph - N/A   Clear
6:53 AM 68.0 °F - 55.0 °F 63% 29.96 in 10.0 mi SSE 4.6 mph - N/A   Clear
7:53 AM 73.9 °F - 54.0 °F 50% 29.95 in 10.0 mi SSW 10.4 mph - N/A   Clear
8:53 AM 79.0 °F - 53.1 °F 40% 29.94 in 10.0 mi SSW 13.8 mph 20.7 mph N/A   Clear
9:53 AM 82.9 °F - 52.0 °F 34% 29.93 in 10.0 mi SSW 12.7 mph - N/A   Clear
10:53 AM 86.0 °F - 50.0 °F 29% 29.91 in 10.0 mi South 6.9 mph - N/A   Clear
11:53 AM 89.1 °F - 48.9 °F 25% 29.89 in 10.0 mi South 6.9 mph - N/A   Clear
12:53 PM 91.9 °F - 48.0 °F 22% 29.86 in 10.0 mi Variable 6.9 mph - N/A   Clear
1:53 PM 93.9 °F - 46.0 °F 19% 29.83 in 10.0 mi Calm Calm - N/A   Clear
2:53 PM 96.1 °F - 46.0 °F 18% 29.80 in 10.0 mi South 8.1 mph - N/A   Clear
3:53 PM 97.0 °F - 45.0 °F 17% 29.78 in 10.0 mi East 9.2 mph - N/A   Clear
4:53 PM 97.0 °F - 44.1 °F 16% 29.75 in 10.0 mi Calm Calm - N/A   Clear
5:53 PM 97.0 °F - 45.0 °F 17% 29.74 in 10.0 mi ENE 3.5 mph - N/A   Clear
6:53 PM 96.1 °F - 45.0 °F 17% 29.73 in 10.0 mi North 9.2 mph - N/A   Clear
7:53 PM 91.9 °F - 50.0 °F 24% 29.75 in 10.0 mi ESE 9.2 mph 20.7 mph N/A   Clear
8:53 PM 89.1 °F 86.7 °F 53.1 °F 29% 29.77 in 10.0 mi SSW 8.1 mph - N/A   Clear
9:53 PM 86.0 °F 84.2 °F 54.0 °F 33% 29.78 in 10.0 mi SSW 13.8 mph - N/A   Clear
10:53 PM 82.0 °F - 52.0 °F 35% 29.80 in 10.0 mi NW 17.3 mph - N/A   Clear
11:53 PM 79.0 °F - 53.1 °F 40% 29.82 in 10.0 mi North 26.5 mph - N/A   Clear